DW2789 Weather Reports


Display with metric or nautical units.
time (UTC)temp
F
wind
direction
speed
MPH
gust
MPH
rain 1hr
in
rain 24hr
in
rain mn
in
humidity
%
barometer
mb
20260509222001 75 257 2.0 7.0 0.00 0.00 0.00 41 1017.6
20260509220942 76 257 1.0 5.0 0.00 0.00 0.00 45 1017.5
20260509215945 76 256 0.0 8.0 0.00 0.00 0.00 41 1017.6
20260509214948 76 257 0.0 3.0 0.00 0.00 0.00 40 1017.8
20260509213935 75 257 1.0 6.0 0.00 0.00 0.00 45 1017.9
20260509212941 75 256 1.0 5.0 0.00 0.00 0.00 40 1018.0
20260509211943 74 257 5.0 8.0 0.00 0.00 0.00 42 1018.1
20260509210928 74 253 0.0 7.0 0.00 0.00 0.00 38 1018.3
20260509205937 74 253 4.0 9.0 0.00 0.00 0.00 41 1018.3
20260509204941 73 252 1.0 7.0 0.00 0.00 0.00 39 1018.4
20260509203941 73 252 0.0 11.0 0.00 0.00 0.00 39 1018.5
20260509202939 73 252 3.0 8.0 0.00 0.00 0.00 41 1018.5
20260509201942 72 252 1.0 6.0 0.00 0.00 0.00 43 1018.5
20260509200939 72 252 2.0 8.0 0.00 0.00 0.00 40 1018.7
20260509195936 72 252 4.0 9.0 0.00 0.00 0.00 41 1018.8
20260509194939 71 252 1.0 8.0 0.00 0.00 0.00 43 1018.9
20260509193941 71 252 0.0 6.0 0.00 0.00 0.00 44 1018.9
20260509192931 70 252 4.0 8.0 0.00 0.00 0.00 46 1019.2
20260509191934 69 252 5.0 8.0 0.00 0.00 0.00 46 1019.4
20260509190936 69 252 4.0 10.0 0.00 0.00 0.00 44 1019.5
20260509184955 69 251 0.0 7.0 0.00 0.00 0.00 51 1019.7
20260509183941 68 250 5.0 9.0 0.00 0.00 0.00 47 1019.8
20260509182943 68 251 4.0 9.0 0.00 0.00 0.00 48 1020.0
20260509181945 67 250 3.0 10.0 0.00 0.00 0.00 47 1020.0
20260509180947 67 250 3.0 11.0 0.00 0.00 0.00 47 1020.2
20260509175932 67 281 3.0 8.0 0.00 0.00 0.00 52 1020.2
20260509174945 66 282 5.0 10.0 0.00 0.00 0.00 52 1020.1
20260509173959 66 281 3.0 11.0 0.00 0.00 0.00 54 1020.2
20260509172957 65 281 5.0 11.0 0.00 0.00 0.00 54 1020.1
20260509171953 65 277 6.0 10.0 0.00 0.00 0.00 52 1020.2
20260509170934 64 276 9.0 12.0 0.00 0.00 0.00 51 1020.2
20260509165935 64 297 3.0 10.0 0.00 0.00 0.00 56 1020.3
20260509164935 63 302 4.0 9.0 0.00 0.00 0.00 58 1020.4
20260509163937 63 302 4.0 11.0 0.00 0.00 0.00 59 1020.4
20260509162940 62 306 6.0 11.0 0.00 0.00 0.00 59 1020.5
20260509161947 62 298 5.0 9.0 0.00 0.00 0.00 59 1020.6
20260509155943 61 281 4.0 8.0 0.00 0.00 0.00 59 1020.6
20260509154946 60 281 3.0 8.0 0.00 0.00 0.00 59 1020.5
20260509153935 60 280 3.0 12.0 0.00 0.00 0.00 60 1020.4
20260509152942 58 280 0.0 0.0 0.00 0.00 0.00 64 1020.4
20260509151927 56 280 0.0 0.0 0.00 0.00 0.00 66 1020.5
20260509150933 55 280 0.0 0.0 0.00 0.00 0.00 68 1020.6
20260509145940 55 280 0.0 0.0 0.00 0.00 0.00 69 1020.5
20260509144940 54 280 0.0 0.0 0.00 0.00 0.00 69 1020.4
20260509144019 53 280 0.0 0.0 0.00 0.00 0.00 71 1020.4
20260509143004 52 280 0.0 0.0 0.00 0.00 0.00 72 1020.4
20260509141942 52 280 0.0 4.0 0.00 0.00 0.00 73 1020.4
20260509140942 51 280 0.0 3.0 0.00 0.00 0.00 74 1020.5
20260509135945 50 280 0.0 0.0 0.00 0.00 0.00 75 1020.6
20260509134958 50 280 0.0 8.0 0.00 0.00 0.00 75 1020.6
20260509133939 49 289 3.0 8.0 0.00 0.00 0.00 76 1020.6
20260509133004 49 338 1.0 4.0 0.00 0.00 0.00 77 1020.6
20260509131929 48 360 0.0 3.0 0.00 0.00 0.00 79 1020.6
20260509130934 47 5 0.0 0.0 0.00 0.00 0.00 79 1020.6
20260509125937 47 44 0.0 0.0 0.00 0.00 0.00 79 1020.6
20260509125000 47 44 0.0 0.0 0.00 0.00 0.00 79 1020.5
20260509123942 47 44 0.0 0.0 0.00 0.00 0.00 80 1020.5
20260509121942 46 57 0.0 0.0 0.00 0.00 0.00 80 1020.5
20260509120945 46 57 0.0 0.0 0.00 0.00 0.00 81 1020.4
20260509115950 46 57 0.0 0.0 0.00 0.00 0.00 81 1020.5
20260509114931 46 57 0.0 0.0 0.00 0.00 0.00 80 1020.4
20260509113958 46 57 0.0 0.0 0.00 0.00 0.00 80 1020.4
20260509112942 46 57 0.0 0.0 0.00 0.00 0.00 80 1020.6
20260509111942 46 57 0.0 0.0 0.00 0.00 0.00 79 1020.4
20260509110945 47 57 0.0 0.0 0.00 0.00 0.00 78 1020.4
20260509105946 47 57 0.0 0.0 0.00 0.00 0.00 78 1020.5
20260509104944 47 58 0.0 0.0 0.00 0.00 0.00 77 1020.4
20260509103937 48 57 0.0 0.0 0.00 0.00 0.00 76 1020.4
20260509101933 48 57 0.0 0.0 0.00 0.00 0.00 75 1020.3
20260509100939 49 58 0.0 0.0 0.00 0.00 0.00 74 1020.2
20260509095946 49 58 0.0 0.0 0.00 0.00 0.00 73 1020.0
20260509094948 50 58 0.0 0.0 0.00 0.00 0.00 70 1019.9
20260509093933 52 58 0.0 0.0 0.00 0.00 0.00 68 1019.9
20260509092939 53 57 0.0 0.0 0.00 0.00 0.00 66 1019.8
20260509091945 54 58 0.0 1.0 0.00 0.00 0.00 65 1019.8
20260509090948 54 58 0.0 0.0 0.00 0.00 0.00 64 1019.6
20260509085929 55 58 0.0 11.0 0.00 0.00 0.00 63 1019.5
20260509084935 55 46 0.0 12.0 0.00 0.00 0.00 63 1019.5
20260509083941 55 17 3.0 8.0 0.00 0.00 0.00 62 1019.5
20260509082937 55 36 0.0 12.0 0.00 0.00 0.00 62 1019.5
20260509081950 56 22 0.0 0.0 0.00 0.00 0.00 61 1019.5
20260509080949 56 22 1.0 9.0 0.00 0.00 0.00 61 1019.4
20260509075937 56 11 6.0 12.0 0.00 0.00 0.00 60 1019.4
20260509075011 57 32 5.0 11.0 0.00 0.00 0.00 60 1019.3
20260509072935 57 38 5.0 13.0 0.00 0.00 0.00 58 1019.2
20260509071935 57 26 1.0 12.0 0.00 0.00 0.00 58 1019.1
20260509070938 57 48 4.0 13.0 0.00 0.00 0.00 57 1018.9
20260509070007 58 25 5.0 15.0 0.00 0.00 0.00 56 1018.9
20260509063941 58 42 9.0 17.0 0.00 0.00 0.00 55 1018.8
20260509062944 58 50 5.0 13.0 0.00 0.00 0.00 55 1018.9
20260509061946 59 34 8.0 16.0 0.00 0.00 0.00 54 1018.7
20260509060935 59 40 8.0 16.0 0.00 0.00 0.00 53 1018.8
20260509055938 59 45 7.0 16.0 0.00 0.00 0.00 53 1018.6
20260509054944 59 23 8.0 15.0 0.00 0.00 0.00 52 1018.5
20260509053946 59 24 9.0 16.0 0.00 0.00 0.00 51 1018.5
20260509052936 60 55 9.0 17.0 0.00 0.00 0.00 51 1018.4
20260509051937 60 30 9.0 17.0 0.00 0.00 0.00 50 1018.3
20260509051004 60 48 10.0 17.0 0.00 0.00 0.00 49 1018.1
20260509045939 61 20 11.0 21.0 0.00 0.00 0.00 48 1018.0
20260509044939 61 34 10.0 18.0 0.00 0.00 0.00 47 1017.9
20260509043940 61 35 7.0 19.0 0.00 0.00 0.00 46 1017.6
20260509042936 62 10 9.0 16.0 0.00 0.00 0.00 45 1017.5
20260509041933 63 46 10.0 19.0 0.00 0.00 0.00 44 1017.4
20260509040937 63 49 8.0 20.0 0.00 0.00 0.00 43 1017.2
20260509035942 63 57 11.0 16.0 0.00 0.00 0.00 43 1017.1
20260509034946 63 49 9.0 20.0 0.00 0.00 0.00 41 1016.7
20260509033949 64 26 9.0 19.0 0.00 0.00 0.00 41 1016.4
20260509032931 64 34 8.0 16.0 0.00 0.00 0.00 41 1016.2
20260509031938 64 9 9.0 17.0 0.00 0.00 0.00 40 1016.1
20260509030941 65 37 12.0 18.0 0.00 0.00 0.00 39 1015.9
20260509025943 65 41 10.0 20.0 0.00 0.00 0.00 39 1015.8
20260509024945 66 26 10.0 16.0 0.00 0.00 0.00 40 1015.8
20260509023935 67 30 10.0 18.0 0.00 0.00 0.00 38 1015.5
20260509022938 67 46 9.0 18.0 0.00 0.00 0.00 37 1015.4
20260509021940 68 44 11.0 21.0 0.00 0.00 0.00 35 1015.3
20260509020942 68 53 12.0 20.0 0.00 0.00 0.00 34 1015.2
20260509015940 69 51 11.0 25.0 0.00 0.00 0.00 33 1015.1
20260509014941 70 37 13.0 20.0 0.00 0.00 0.00 33 1015.1
20260509013944 70 11 12.0 21.0 0.00 0.00 0.00 33 1015.1
20260509012944 70 360 15.0 21.0 0.00 0.00 0.00 32 1015.0
20260509011941 71 348 14.0 21.0 0.00 0.00 0.00 31 1015.0
20260509010948 71 338 8.0 19.0 0.00 0.00 0.00 31 1015.1
20260509010011 71 331 12.0 22.0 0.00 0.00 0.00 30 1015.1
20260509004931 71 327 7.0 26.0 0.00 0.00 0.00 30 1015.1
20260509003934 71 318 16.0 27.0 0.00 0.00 0.00 29 1015.2
20260509002936 71 286 12.0 23.0 0.00 0.00 0.00 28 1015.1
20260509001943 71 269 14.0 22.0 0.00 0.00 0.00 27 1015.3
20260509000949 72 252 12.0 20.0 0.00 0.00 0.00 26 1015.2
20260508235932 72 225 10.0 17.0 0.00 0.00 0.00 27 1015.2
20260508234937 72 222 10.0 20.0 0.00 0.00 0.00 27 1015.1
20260508233942 71 206 7.0 13.0 0.00 0.00 0.00 26 1015.2
20260508232945 70 198 1.0 9.0 0.00 0.00 0.00 26 1015.3
20260508231931 71 198 10.0 17.0 0.00 0.00 0.00 23 1015.3
20260508230944 71 185 8.0 19.0 0.00 0.00 0.00 22 1015.2
20260508230020 72 159 13.0 24.0 0.00 0.00 0.00 20 1015.3
20260508225002 73 143 11.0 17.0 0.00 0.00 0.00 24 1015.4
20260508223940 73 136 11.0 19.0 0.00 0.00 0.00 25 1015.5
20260508222939 73 126 12.0 17.0 0.00 0.00 0.00 25 1015.4